Tracking 32422 objects as of 7-Dec-2025
HD Live streaming from Space Station
objects crossing your sky now

GRUS-3ALPHA

Track GRUS-3ALPHA now!
10-day predictions


NORAD ID: 64579
Int'l Code: 2025-135BD
Perigee: 596.4 km
Apogee: 598.7 km
Inclination: 97.8 °
Period: 96.5 minutes
Semi major axis: 6968 km
RCS: Unknown
Launch date: June 23, 2025
Source: Japan (JPN)
Launch site: AIR FORCE WESTERN TEST RANGE (AFWTR)
Your satellite tracking list
Your tracking list is empty




NASA's NSSDC Master Catalog

Two Line Element Set (TLE):
1 64579U 25135BD  25341.25297250  .00003545  00000-0  35150-3 0  9998
2 64579  97.7627  93.0304 0001626 271.7842  88.3191 14.92421915 25247
Source of the keplerian elements: AFSPC